Content
SEND FEEDBACK

Daily
Averages
Monthly
Summary
United States of America

SOUTH LAKE TAHOE - AIRPORT, CALIFORNIA


Home > North America > United States > California
Elevation: 6250 feet     Latitude: 38 54N     Longitude: 120 00W

WEATHER
 
SELECT A DAY
Number of Records: 178,607;   Date Range: 1/1/95 - 12/18/14
 
SHARE

PRINT THIS DATA

[ ← Previous Day ]
WEATHER ALMANAC - OCTOBER 25, 2013
[ Next Day → ]
[ °C ]   °F
Weather ElementAverageHighLow
Temperature42.6 °F66 °F (2:53 pm)26.1 °F (6:53 am)
Dewpoint15.2 °F26.1 °F (11:53 am)6.1 °F (3:53 pm)
Humidity39.4 %66 % (6:53 am)9 % (3:53 pm)
Barometer30.26 in30.34 in (8:53 am)30.20 in (1:53 am)
Wind Speed2.9 mph9.2 mph (2:53 pm)
Weather ElementAverage
Visibility10 mi
Wind DirectionENE (70 °)

Weather ElementTotal
Precipitation---
Heating Degree Days19 (Base 65)
Averaged from 22 records on October 25, 2013
WEATHER CONDITIONS BREAKOUT
WIND DIRECTION BREAKOUT
WEATHER BY HOUR - OCTOBER 25, 2013
[ °C ]   °F
Local TimeTemperatureDewpointHumidityBarometerVisibilityWind DirectionWind SpeedGust SpeedPrecipitationEventsConditions
1:53 AM28.9 °F17.1 °F61 %30.20 in10.0 miSSW (200°)3.5 mphClear
2:53 AM30.0 °F16.0 °F56 %30.20 in10.0 miCalmClear
3:53 AM28.0 °F16.0 °F61 %30.21 in10.0 miCalmClear
4:53 AM28.0 °F16.0 °F61 %30.22 in10.0 miSSW (200°)3.5 mphClear
5:53 AM27.0 °F16.0 °F63 %30.26 in10.0 miCalmClear
6:53 AM26.1 °F16.0 °F66 %30.29 in10.0 miCalmClear
7:53 AM26.1 °F16.0 °F66 %30.32 in10.0 miSouth (190°)3.5 mphClear
8:53 AM32.0 °F19.0 °F59 %30.34 in10.0 miSouth (180°)3.5 mphClear
9:53 AM48.0 °F19.9 °F33 %30.30 in10.0 miCalmClear
10:53 AM55.9 °F19.9 °F25 %30.27 in10.0 miENE (60°)3.5 mphClear
11:53 AM61.0 °F26.1 °F26 %30.26 in10.0 miNE (50°)5.8 mphClear
12:53 PM63.0 °F21.9 °F21 %30.24 in10.0 miNNE (20°)6.9 mphClear
2:53 PM66.0 °F7.0 °F10 %30.21 in10.0 miNNE (30°)9.2 mphClear
3:53 PM66.0 °F6.1 °F9 %30.21 in10.0 miNE (40°)5.8 mphClear
4:53 PM63.0 °F7.0 °F11 %30.22 in10.0 miVariable3.5 mphClear
5:53 PM53.1 °F12.0 °F20 %30.25 in10.0 miCalmClear
6:53 PM46.9 °F12.9 °F25 %30.29 in10.0 miSouth (190°)3.5 mphClear
7:53 PM42.1 °F14.0 °F32 %30.32 in10.0 miCalmClear
8:53 PM39.0 °F14.0 °F36 %30.31 in10.0 miCalmClear
9:53 PM37.0 °F14.0 °F39 %30.28 in10.0 miVariable3.5 mphClear
10:53 PM36.0 °F14.0 °F41 %30.27 in10.0 miSSW (200°)3.5 mphClear
11:53 PM33.1 °F14.0 °F46 %30.26 in10.0 miSouth (180°)3.5 mphClear
Hourly data recorded from KTVL, located miles away from South Lake Tahoe - Airport, California







STORIES FROM OUR PARTNERS